Baileyville, IL

10:00 AM CST on February 06, 2016 (GMT -0600)
Albertus

Weather History for KFEP - March, 2013

Change the Weather History Date:

Wednesday, March 20, 2013

  Actual Average (KRFD) Record (KRFD)
Temperature  
Mean Temperature 16 °F 39 °F  
Max Temperature 23 °F 49 °F 83 °F (2012)
Min Temperature 10 °F 29 °F 4 °F (1965)
Degree Days  
Heating Degree Days 48 26  
Month to date heating degree days 602  
Since 1 July heating degree days 5604  
Cooling Degree Days 0 0  
Month to date cooling degree days 0  
Year to date cooling degree days 0  
Moisture  
Dew Point 7 °F    
Average Humidity 64    
Maximum Humidity 76    
Minimum Humidity 55    
Precipitation  
Precipitation 0.00 in 0.08 in 1.67 in (2011)
Month to date precipitation 1.37  
Year to date precipitation 4.15  
Snow  
Snow 0.00 in 0.10 in 5.00 in (1933)
Month to date snowfall 3.6  
Since 1 July snowfall 34.6  
Snow Depth -    
Sea Level Pressure  
Sea Level Pressure 30.10 in    
Wind  
Wind Speed 17 mph (West)    
Max Wind Speed 23 mph    
Max Gust Speed 33 mph    
Visibility 10 miles    
Events      
T = Trace of Precipitation, MM = Missing Value Source: NWS Daily Summary

Daily Weather History Graph

Daily Weather History Graph

Search for Another Location

Airport or City:

Trip Planner

Search our weather history database for the weather conditions in past years. The results will help you decide how hot, cold, wet, or windy it might be!

Date:

Astronomy

Mar. 20, 2013 Rise Set
Actual Time 7:01 AM CDT 7:10 PM CDT
Civil Twilight 6:33 AM CDT 7:38 PM CDT
Nautical Twilight 6:00 AM CDT 8:11 PM CDT
Astronomical Twilight 5:27 AM CDT 8:45 PM CDT
Moon 12:40 PM CDT (3/20) 2:46 AM CDT (3/20)
Length of Visible Light 13h 05m
Length of Day
12h 09m
First Quarter, 59% of the Moon is Illuminated
Mar 20
First Quarter
Mar 27
Full
Apr 2
Last Quarter
Apr 10
New
Apr 18
First Quarter

Hourly Weather History & Observations

Time (CDT) Temp. Windchill Dew Point Humidity Pressure Visibility Wind Dir Wind Speed Gust Speed Precip Events Conditions
12:15 AM 22.5 °F 8.5 °F 11.3 °F 62% 30.09 in 10.0 mi West 17.3 mph 24.2 mph N/A   Clear
12:35 AM 21.6 °F 5.7 °F 10.8 °F 63% 30.08 in 10.0 mi West 21.9 mph 27.6 mph N/A   Clear
12:55 AM 21.2 °F 7.3 °F 10.9 °F 65% 30.09 in 10.0 mi West 16.1 mph 21.9 mph N/A   Clear
1:15 AM 20.7 °F 7.1 °F 9.7 °F 63% 30.10 in 10.0 mi West 15.0 mph 25.3 mph N/A   Clear
1:35 AM 18.5 °F 5.5 °F 7.0 °F 61% 30.11 in 10.0 mi West 12.7 mph 25.3 mph N/A   Clear
1:55 AM 18.5 °F 4.3 °F 6.8 °F 60% 30.11 in 10.0 mi West 15.0 mph 23.0 mph N/A   Clear
2:15 AM 17.4 °F 1.9 °F 6.4 °F 62% 30.11 in 10.0 mi West 17.3 mph 25.3 mph N/A   Clear
2:35 AM 16.2 °F -0.2 °F 5.9 °F 64% 30.10 in 10.0 mi West 18.4 mph 25.3 mph N/A   Clear
2:55 AM 16.2 °F 1.9 °F 6.6 °F 66% 30.10 in 10.0 mi West 13.8 mph 23.0 mph N/A   Clear
3:15 AM 14.9 °F -0.3 °F 5.9 °F 68% 30.11 in 10.0 mi West 15.0 mph 24.2 mph N/A   Clear
3:35 AM 14.0 °F -2.0 °F 4.6 °F 66% 30.11 in 10.0 mi West 16.1 mph 20.7 mph N/A   Clear
3:55 AM 13.6 °F -3.0 °F 4.6 °F 67% 30.10 in 10.0 mi West 17.3 mph 20.7 mph N/A   Clear
4:15 AM 13.6 °F -2.4 °F 5.0 °F 68% 30.10 in 10.0 mi West 16.1 mph 25.3 mph N/A   Clear
4:35 AM 13.6 °F -3.5 °F 4.8 °F 68% 30.10 in 10.0 mi West 18.4 mph 24.2 mph N/A   Clear
4:55 AM 13.6 °F -1.9 °F 5.2 °F 69% 30.10 in 10.0 mi West 15.0 mph 23.0 mph N/A   Clear
5:15 AM 13.6 °F -3.0 °F 5.2 °F 69% 30.11 in 10.0 mi West 17.3 mph 21.9 mph N/A   Clear
5:35 AM 13.6 °F -2.4 °F 5.0 °F 68% 30.11 in 10.0 mi West 16.1 mph - N/A   Clear
5:55 AM 11.7 °F -4.4 °F 3.2 °F 69% 30.12 in 10.0 mi West 15.0 mph 20.7 mph N/A   Clear
6:15 AM 11.1 °F -4.5 °F 2.3 °F 68% 30.12 in 10.0 mi West 13.8 mph 21.9 mph N/A   Clear
6:35 AM 11.1 °F -5.7 °F 2.3 °F 68% 30.13 in 10.0 mi West 16.1 mph 21.9 mph N/A   Clear
6:55 AM 11.1 °F -5.1 °F 2.1 °F 67% 30.13 in 10.0 mi West 15.0 mph 20.7 mph N/A   Clear
7:15 AM 11.1 °F -5.7 °F 2.1 °F 67% 30.13 in 10.0 mi West 16.1 mph 20.7 mph N/A   Clear
7:35 AM 11.1 °F -3.9 °F 1.8 °F 66% 30.14 in 10.0 mi West 12.7 mph 20.7 mph N/A   Clear
7:55 AM 10.4 °F -8.2 °F 1.4 °F 67% 30.14 in 10.0 mi West 19.6 mph - N/A   Clear
8:15 AM 11.1 °F -6.7 °F 1.4 °F 65% 30.14 in 10.0 mi West 18.4 mph 23.0 mph N/A   Clear
8:35 AM 11.8 °F -4.8 °F 1.8 °F 64% 30.14 in 10.0 mi West 16.1 mph - N/A   Clear
8:55 AM 13.6 °F -3.9 °F 3.9 °F 65% 30.14 in 10.0 mi West 19.6 mph 25.3 mph N/A   Clear
9:15 AM 13.6 °F -4.4 °F 4.1 °F 66% 30.14 in 10.0 mi West 20.7 mph 25.3 mph N/A   Clear
9:35 AM 13.6 °F -3.5 °F 3.6 °F 64% 30.14 in 10.0 mi West 18.4 mph 26.5 mph N/A   Clear
9:55 AM 13.6 °F -3.5 °F 3.4 °F 64% 30.14 in 10.0 mi West 18.4 mph 26.5 mph N/A   Clear
10:15 AM 13.8 °F -3.2 °F 3.7 °F 64% 30.13 in 10.0 mi West 18.4 mph - N/A   Clear
10:35 AM 14.9 °F -2.3 °F 4.5 °F 63% 30.13 in 10.0 mi West 19.6 mph 26.5 mph N/A   Clear
10:55 AM 16.2 °F -1.0 °F 4.6 °F 61% 30.13 in 10.0 mi West 20.7 mph 28.8 mph N/A   Clear
11:15 AM 16.2 °F -1.0 °F 5.0 °F 62% 30.13 in 10.0 mi West 20.7 mph 24.2 mph N/A   Clear
11:35 AM 16.5 °F -1.0 °F 5.0 °F 61% 30.12 in 10.0 mi West 21.9 mph 29.9 mph N/A   Clear
11:55 AM 18.5 °F 2.0 °F 7.5 °F 62% 30.12 in 10.0 mi West 20.7 mph 24.2 mph N/A   Clear
12:15 PM 18.5 °F 1.6 °F 7.0 °F 61% 30.12 in 10.0 mi West 21.9 mph 28.8 mph N/A   Clear
12:35 PM 19.8 °F 5.0 °F 7.9 °F 60% 30.11 in 10.0 mi West 17.3 mph 25.3 mph N/A   Clear
12:55 PM 19.6 °F 3.1 °F 7.0 °F 58% 30.11 in 10.0 mi West 21.9 mph 33.4 mph N/A   Clear
1:15 PM 21.2 °F 6.4 °F 9.3 °F 60% 30.11 in 10.0 mi West 18.4 mph 27.6 mph N/A   Clear
1:35 PM 21.2 °F 6.8 °F 8.8 °F 59% 30.10 in 10.0 mi West 17.3 mph 27.6 mph N/A   Scattered Clouds
1:55 PM 21.2 °F 4.9 °F 8.4 °F 58% 30.08 in 10.0 mi West 23.0 mph 29.9 mph N/A   Scattered Clouds
2:15 PM 21.2 °F 5.6 °F 8.6 °F 58% 30.08 in 10.0 mi West 20.7 mph 29.9 mph N/A   Clear
2:35 PM 21.4 °F 5.5 °F 8.4 °F 57% 30.07 in 10.0 mi West 21.9 mph 27.6 mph N/A   Clear
2:55 PM 22.6 °F 9.2 °F 9.5 °F 57% 30.06 in 10.0 mi West 16.1 mph 27.6 mph N/A   Clear
3:15 PM 23.4 °F 9.6 °F 10.4 °F 58% 30.06 in 10.0 mi West 17.3 mph 24.2 mph N/A   Clear
3:35 PM 22.1 °F 6.4 °F 8.6 °F 56% 30.06 in 10.0 mi West 21.9 mph 29.9 mph N/A   Clear
3:55 PM 23.2 °F 8.2 °F 9.3 °F 55% 30.05 in 10.0 mi West 20.7 mph 26.5 mph N/A   Clear
4:15 PM 23.7 °F 8.9 °F 9.9 °F 56% 30.05 in 10.0 mi West 20.7 mph 28.8 mph N/A   Clear
4:35 PM 23.7 °F 10.5 °F 9.9 °F 56% 30.05 in 10.0 mi West 16.1 mph - N/A   Clear
4:55 PM 23.5 °F 9.0 °F 9.9 °F 56% 30.05 in 10.0 mi WNW 19.6 mph 26.5 mph N/A   Clear
5:15 PM 23.7 °F 9.3 °F 10.9 °F 58% 30.06 in 10.0 mi WNW 19.6 mph - N/A   Clear
5:35 PM 22.1 °F 6.8 °F 9.1 °F 58% 30.06 in 10.0 mi WNW 20.7 mph 28.8 mph N/A   Clear
5:55 PM 21.7 °F 8.5 °F 9.3 °F 59% 30.06 in 10.0 mi WNW 15.0 mph 25.3 mph N/A   Clear
6:15 PM 21.2 °F 6.8 °F 8.8 °F 59% 30.06 in 10.0 mi West 17.3 mph 25.3 mph N/A   Clear
6:35 PM 21.2 °F 6.0 °F 9.3 °F 60% 30.06 in 10.0 mi WNW 19.6 mph 25.3 mph N/A   Clear
6:55 PM 21.0 °F 5.7 °F 9.7 °F 62% 30.07 in 10.0 mi WNW 19.6 mph 27.6 mph N/A   Clear
7:15 PM 19.9 °F 6.2 °F 10.2 °F 66% 30.07 in 10.0 mi WNW 15.0 mph - N/A   Mostly Cloudy
7:35 PM 19.0 °F 5.0 °F 9.3 °F 66% 30.07 in 10.0 mi WNW 15.0 mph 18.4 mph N/A   Mostly Cloudy
7:55 PM 18.5 °F 3.3 °F 7.9 °F 63% 30.07 in 10.0 mi West 17.3 mph 25.3 mph N/A   Mostly Cloudy
8:15 PM 18.5 °F 4.9 °F 7.7 °F 63% 30.08 in 10.0 mi West 13.8 mph 19.6 mph N/A   Mostly Cloudy
8:35 PM 18.5 °F 4.9 °F 8.4 °F 65% 30.07 in 10.0 mi West 13.8 mph 17.3 mph N/A   Mostly Cloudy
8:55 PM 18.5 °F 6.1 °F 9.3 °F 67% 30.08 in 10.0 mi West 11.5 mph 17.3 mph N/A   Scattered Clouds
9:15 PM 18.5 °F 5.5 °F 9.5 °F 68% 30.08 in 10.0 mi West 12.7 mph - N/A   Mostly Cloudy
9:35 PM 18.5 °F 5.5 °F 9.9 °F 69% 30.08 in 10.0 mi West 12.7 mph - N/A   Mostly Cloudy
9:55 PM 18.5 °F 6.1 °F 10.0 °F 70% 30.08 in 10.0 mi West 11.5 mph - N/A   Scattered Clouds
10:15 PM 16.3 °F 4.9 °F 7.7 °F 69% 30.08 in 10.0 mi West 9.2 mph - N/A   Clear
10:35 PM 16.2 °F 4.7 °F 8.2 °F 71% 30.08 in 10.0 mi West 9.2 mph - N/A   Clear
10:55 PM 16.2 °F 4.7 °F 8.6 °F 72% 30.08 in 10.0 mi West 9.2 mph - N/A   Clear
11:15 PM 16.2 °F 4.7 °F 8.8 °F 73% 30.09 in 10.0 mi West 9.2 mph - N/A   Clear
11:35 PM 15.4 °F 3.8 °F 8.4 °F 74% 30.08 in 10.0 mi WNW 9.2 mph - N/A   Mostly Cloudy
11:55 PM 14.9 °F 5.0 °F 8.4 °F 76% 30.08 in 10.0 mi WNW 6.9 mph - N/A   Mostly Cloudy